Dewpoint
75 74 74 74 73 71 67 64 54 57 53 51 52 54 54 61 63 61 61 62 59 65 67 67 64 63 62 62 62 62 62 59 59 55 53 66 71 70 70 70 72 73 74 75 76 77 77 78 78 77 78 77 77 77 77 77 77 77 77 77 77 77 77 77 77 77 76 77 77 76 77 77 77 77 77 77 77 76 76 76 76 76 77 76 76 76 76 76 76 76 75 75 75 75 74 74 74
75 74 74 74 71 68 62 65 55 54 55 52 51 56 57 61 60 58 59 60 61 65 67 67 66 66 67 66 65 66 64 68 67 66 68 71 70 69 71 72 72 73 74 75 76 77 77 78 78 78 78 77 77 77 77 77 77 77 77 77 77 77 77 77 77 77 77 76 76 76 76 76 76 76 76 76 76 76 76 76 76 76 76 76 76 75 76 75 76 76 75 75 75 75 74 74 73
73 72 72 73 71 68 64 60 53 53 51 49 52 56 62 59 58 59 61 63 66 67 67 68 67 67 65 66 63 63 61 69 69 69 69 70 68 70 71 72 72 74 75 75 77 77 77 78 78 78 78 77 77 77 77 77 77 77 77 77 77 77 77 77 77 77 77 77 77 77 76 76 76 76 76 76 76 76 76 76 75 75 75 75 75 75 75 75 75 75 75 75 75 74 74 74 74
73 74 71 69 64 66 58 57 52 52 51 50 52 57 60 60 59 61 64 66 66 66 66 65 64 69 65 62 64 65 67 67 69 68 68 68 69 71 72 72 74 75 75 76 77 77 77 78 78 78 78 78 77 78 77 77 77 77 77 77 77 77 77 77 77 77 76 76 76 76 77 77 77 77 76 76 76 76 76 75 75 75 75 75 75 74 74 74 75 75 75 75 75 73 74 74 74
72 73 72 67 62 58 59 57 56 54 50 51 50 57 60 62 61 63 65 67 67 66 66 66 66 68 69 66 67 63 63 69 69 69 69 70 71 72 72 73 74 75 75 76 76 77 77 78 78 78 78 78 78 77 77 77 77 77 77 77 77 77 77 77 77 76 76 76 76 76 76 76 76 76 76 76 76 76 75 75 75 75 75 75 74 74 74 75 75 75 75 74 75 75 75 75 75
71 70 71 68 61 64 61 55 54 54 54 56 54 55 61 63 63 64 65 66 66 67 67 66 65 65 66 67 69 66 69 66 69 69 70 71 71 72 73 74 74 74 75 76 76 76 77 78 78 78 78 78 77 77 77 77 77 77 77 77 77 77 77 77 76 76 76 76 76 76 76 76 76 76 76 76 75 75 75 75 75 75 75 74 74 75 75 75 76 75 75 75 75 75 75 75 75
68 66 66 64 63 64 56 54 54 53 55 58 57 56 59 63 64 64 64 63 66 66 68 66 67 66 63 66 69 69 70 70 69 69 71 71 72 73 73 73 74 74 75 75 76 76 77 78 78 78 78 78 77 77 77 77 77 77 77 77 77 77 77 77 76 76 76 76 75 75 75 76 75 75 75 75 75 75 75 75 75 75 75 74 75 75 75 75 75 75 76 75 76 76 75 75 75
71 64 64 58 56 59 56 56 55 55 55 58 61 62 63 64 65 64 63 62 62 63 66 66 67 65 63 69 64 69 72 74 71 72 72 72 72 73 73 73 73 74 74 75 75 76 78 78 78 78 78 77 77 77 77 76 76 76 76 76 77 77 76 76 76 76 76 76 75 75 75 75 75 75 75 75 75 75 75 74 74 75 74 75 75 75 76 75 76 76 76 76 76 76 75 75 75
68 66 65 59 55 58 55 55 55 58 57 59 59 63 64 65 66 64 63 64 64 65 65 65 66 63 64 66 66 70 71 73 72 73 72 72 72 73 73 73 73 74 74 74 75 76 77 78 78 78 77 77 77 77 76 76 76 76 76 76 76 76 76 76 76 76 76 76 75 75 75 75 75 75 75 75 75 75 75 74 75 75 74 75 75 75 75 76 76 76 76 76 76 76 76 76 76
66 64 58 58 58 54 54 54 53 55 58 61 60 60 63 66 65 65 64 63 63 64 65 66 67 63 65 65 67 69 70 72 72 72 72 72 73 73 73 73 73 73 74 74 75 76 77 78 78 78 77 77 77 76 76 75 75 76 76 76 76 76 76 76 76 76 76 76 75 75 75 75 75 75 75 75 75 75 74 74 75 74 75 75 75 75 75 76 76 76 76 76 76 76 76 76 76
60 64 63 56 54 53 51 51 53 55 57 60 62 64 64 66 65 64 64 63 65 64 66 67 64 64 66 66 68 72 72 72 71 71 72 72 72 72 72 73 73 73 73 74 75 75 76 77 78 77 77 76 75 75 74 74 75 75 76 76 76 76 76 75 75 75 76 76 75 76 75 76 76 75 75 75 75 75 75 75 75 75 75 75 75 76 76 76 76 76 76 76 76 76 76 76 77
58 60 59 55 54 51 51 50 53 55 57 59 60 65 67 66 65 63 63 61 63 64 64 67 63 66 64 65 66 71 71 71 71 72 72 72 72 72 72 73 73 74 74 74 75 75 75 76 76 77 76 75 75 75 74 74 75 75 76 76 76 76 76 75 75 75 75 76 76 76 76 76 76 76 76 76 76 75 75 75 75 75 76 75 76 76 76 76 76 76 76 76 76 76 77 77 77
60 60 57 55 53 53 53 53 54 58 57 57 60 65 67 65 64 64 64 64 64 64 63 67 68 67 63 64 69 71 70 71 71 71 72 72 72 72 72 73 73 73 74 75 75 75 75 75 75 75 75 75 75 74 74 74 75 75 76 75 75 75 75 75 75 75 75 75 76 76 76 76 76 76 76 76 76 76 76 76 76 76 76 76 76 76 76 76 76 76 76 77 77 77 77 77 77
61 61 59 54 56 55 55 54 53 54 54 56 62 65 66 64 65 66 65 63 63 63 66 68 68 67 64 67 67 69 71 71 71 71 71 71 71 71 72 73 73 73 74 74 74 74 74 75 74 74 74 74 74 74 75 75 75 75 75 75 75 76 76 76 75 75 75 76 76 76 76 76 76 76 76 76 76 76 76 76 76 76 76 76 76 76 76 76 76 77 77 77 77 77 77 77 77
63 64 61 57 56 56 56 53 53 52 54 59 61 65 66 67 67 66 65 63 64 68 69 71 69 65 62 65 65 68 70 71 71 71 71 71 70 71 71 72 73 73 74 74 74 74 74 74 74 74 75 74 74 74 74 75 75 75 76 75 76 76 76 76 76 75 76 76 76 75 76 76 76 76 76 76 76 76 76 76 76 76 76 76 76 76 76 77 77 77 77 77 78 77 78 78 78
64 63 61 57 55 54 55 54 55 54 54 60 62 65 64 66 68 65 66 67 66 68 68 66 69 65 66 66 67 70 70 70 70 70 70 69 70 70 71 72 72 73 73 74 74 74 74 73 74 74 74 74 74 74 75 75 75 75 76 75 76 75 76 76 76 76 75 75 76 76 76 76 76 76 76 76 76 76 76 76 76 76 76 76 76 76 76 76 77 77 77 78 78 78 78 78 78
67 64 58 57 54 55 55 55 55 52 56 60 64 64 61 63 67 67 69 69 66 66 66 67 67 69 68 69 71 71 70 70 70 69 69 69 70 70 71 71 72 73 73 73 73 73 73 73 74 74 74 74 74 75 75 75 76 75 75 76 75 76 76 76 76 76 76 75 75 76 76 76 76 76 77 76 76 77 76 76 76 76 76 76 77 77 77 77 77 77 77 78 78 78 78 78 78
65 60 58 55 56 55 57 56 56 58 58 60 63 63 62 61 65 66 67 66 66 66 66 67 68 69 70 71 72 71 70 69 68 68 68 68 69 70 70 71 71 71 72 73 73 73 73 73 74 74 74 74 75 75 75 75 76 75 75 76 76 76 76 76 76 76 76 76 76 76 77 77 76 76 76 77 77 77 77 76 76 76 76 76 77 77 77 77 77 77 78 78 78 78 78 77 78
62 60 58 55 56 57 60 60 59 59 58 60 62 64 63 61 65 66 64 63 65 64 64 66 66 68 70 71 71 71 69 68 68 68 68 68 68 69 69 70 70 71 72 72 73 73 73 73 73 73 74 74 75 75 75 75 75 75 75 75 76 76 77 77 76 77 76 76 76 75 77 76 76 76 76 77 77 77 77 76 76 76 76 77 77 77 77 77 78 78 78 78 78 78 77 77 77
64 60 57 57 57 57 61 62 60 61 61 60 61 63 63 63 64 67 64 63 64 62 62 64 65 66 68 70 71 71 68 68 68 68 68 68 68 68 69 69 70 70 71 72 72 72 73 72 73 73 74 74 75 75 75 75 75 75 75 75 76 76 76 77 76 76 75 75 75 75 76 76 76 75 77 77 76 77 76 77 76 76 77 77 77 76 77 77 77 78 78 78 78 78 78 77 77
63 60 58 58 59 58 59 61 62 62 63 62 62 64 63 64 64 66 64 63 63 63 63 64 64 66 68 70 70 69 68 68 68 68 68 68 68 68 69 69 69 70 71 72 72 71 72 72 73 73 74 74 75 75 75 75 75 75 75 75 75 75 76 76 75 75 75 75 75 75 75 75 75 75 75 74 75 75 75 75 75 75 75 75 76 76 77 76 77 76 76 77 76 76 76 76 76
62 60 61 60 60 59 60 62 63 63 65 63 63 62 62 66 66 65 64 61 62 64 64 65 65 67 68 69 69 68 68 68 68 68 68 68 67 68 68 69 69 70 71 71 71 71 71 72 73 73 74 74 74 75 75 75 75 75 75 75 75 75 75 75 75 75 75 75 75 75 75 75 75 75 75 74 74 74 74 75 75 75 75 74 75 75 76 76 76 76 76 76 76 76 75 75 75
59 61 61 61 61 59 61 63 64 64 64 63 63 64 65 64 63 65 65 63 64 67 66 66 66 68 69 69 68 67 67 68 68 68 68 68 68 68 68 68 68 69 70 70 71 72 72 72 73 73 74 74 74 75 75 75 75 75 75 75 75 75 75 75 75 75 75 75 75 75 75 74 74 74 74 74 74 74 74 74 74 75 74 74 74 74 74 75 75 76 76 76 75 75 75 74 74
61 59 61 61 62 61 62 62 63 64 63 63 64 65 63 63 61 64 64 65 66 67 69 69 67 69 69 68 68 67 67 68 67 68 68 68 68 68 68 68 68 69 70 70 71 71 72 71 73 73 73 74 74 74 74 75 75 75 75 76 76 75 75 75 75 75 75 75 75 75 76 74 74 74 74 74 74 74 74 74 74 74 74 74 74 74 74 75 75 75 75 75 75 74 74 74 74
61 60 62 62 62 62 63 62 63 64 64 64 64 62 62 64 63 64 64 65 66 67 68 68 68 69 69 67 67 67 67 67 68 68 68 68 69 69 68 68 68 69 69 69 70 71 72 72 73 73 73 73 73 74 74 74 75 75 75 75 75 76 75 75 75 75 75 75 76 76 76 75 74 74 74 73 73 73 73 73 74 73 74 74 75 74 75 75 76 76 75 74 74 74 74 73 73
63 62 62 62 61 62 63 63 63 63 64 64 63 62 63 64 66 63 64 65 67 68 68 68 68 68 68 67 67 67 67 67 67 67 68 68 68 68 67 67 67 68 68 69 69 70 71 72 72 73 73 73 73 73 74 74 75 75 75 75 75 76 76 75 75 75 75 75 75 76 75 75 74 74 74 74 73 73 73 73 74 73 73 74 74 74 75 75 75 75 74 74 73 73 73 72 73
63 63 63 62 62 62 63 62 62 63 64 64 62 61 62 64 63 60 66 67 67 67 66 67 67 68 67 67 67 67 67 67 67 67 68 68 68 68 67 67 67 67 67 68 69 70 71 72 72 73 73 74 73 73 74 74 75 75 75 75 75 75 75 76 75 75 75 75 75 76 76 76 75 74 74 74 73 73 73 74 73 74 73 73 74 74 75 75 75 74 74 73 73 73 72 71 71
62 63 62 62 62 62 63 63 63 62 61 63 63 62 64 64 63 62 65 67 67 66 65 66 66 67 66 67 67 67 67 67 67 67 67 67 67 67 67 66 66 66 66 67 68 70 71 71 72 72 73 73 74 73 74 74 74 74 75 75 75 75 75 75 75 75 75 75 75 75 75 75 76 75 74 74 73 73 72 73 73 73 73 73 73 73 73 74 74 73 73 73 73 72 72 71 70
63 63 58 57 59 56 63 61 63 62 61 64 63 62 61 62 61 64 66 67 67 66 65 65 66 67 66 66 67 66 66 66 66 66 66 67 67 67 67 66 66 65 65 66 67 69 70 70 71 72 72 73 73 73 74 74 74 74 75 74 74 74 75 75 75 75 75 75 75 75 75 75 76 75 75 75 75 73 72 72 72 73 73 73 72 71 71 73 73 73 72 72 72 72 71 70 69
63 63 58 57 56 52 58 63 63 61 62 64 61 50 52 60 63 64 66 66 66 66 65 65 65 66 66 65 65 66 65 66 65 65 65 66 66 67 67 66 65 65 64 65 66 68 69 70 70 71 72 72 73 73 74 74 74 74 74 74 75 75 74 75 75 75 75 75 75 75 75 75 75 75 75 74 74 73 72 72 71 71 72 72 72 71 71 71 71 71 71 71 72 72 70 70 69
56 57 59 54 51 49 57 62 61 60 63 63 61 52 53 59 62 65 66 66 65 64 65 64 65 65 66 66 65 64 64 65 65 65 65 65 65 66 66 65 65 64 64 64 65 67 69 68 69 70 72 72 73 73 74 73 73 73 74 74 74 74 74 74 75 75 75 75 75 75 75 75 75 75 74 74 73 73 71 71 70 70 71 71 70 71 70 71 71 71 71 70 70 70 68 69 68
58 52 49 51 49 50 55 61 61 57 62 63 59 53 54 58 62 65 66 66 65 64 65 64 65 64 65 65 65 64 63 64 64 64 64 64 65 64 65 64 64 63 63 64 65 66 67 68 69 69 71 72 73 73 73 73 73 73 73 74 74 74 74 74 74 74 74 74 74 74 74 74 74 74 74 74 73 72 71 70 70 70 70 70 69 70 71 71 71 70 71 70 69 68 69 68 68
53 50 49 50 50 51 52 59 62 61 62 63 59 54 57 59 63 64 66 65 65 65 64 64 65 64 65 65 64 65 64 62 63 63 62 63 64 63 64 62 62 62 62 64 65 66 67 68 70 69 70 71 72 73 73 73 73 73 73 73 73 74 74 74 74 74 74 74 74 73 73 73 74 73 73 73 72 72 71 71 70 68 69 68 68 69 71 72 71 69 71 72 70 69 68 66 66
49 51 50 51 50 51 48 53 61 62 60 58 59 58 58 58 62 63 65 65 64 65 64 65 65 65 65 65 65 65 65 64 62 62 61 62 62 62 63 64 62 61 62 64 65 66 67 68 70 69 70 71 72 72 73 73 73 73 73 73 75 73 73 74 74 74 74 73 73 73 73 72 73 73 72 72 72 71 71 71 70 69 68 68 68 68 69 70 71 71 70 70 70 69 68 66 65
45 48 48 47 50 53 50 51 55 58 58 56 56 56 57 59 61 63 64 65 64 64 64 64 64 64 65 65 65 65 64 64 63 63 60 61 61 61 62 62 61 61 62 64 65 66 68 69 70 70 70 71 71 72 73 73 73 73 72 72 73 73 74 73 73 73 73 73 72 72 72 72 73 72 72 72 72 71 71 71 71 71 69 68 67 67 67 68 69 68 68 68 69 69 67 66 65
48 49 48 49 47 47 48 52 57 57 55 54 55 54 57 57 60 63 64 64 64 64 65 65 65 64 65 65 64 64 64 64 64 63 60 60 60 59 61 61 60 60 62 64 66 67 68 69 70 70 71 70 71 72 73 72 72 72 71 72 72 73 73 73 73 72 72 71 71 71 71 71 71 72 72 72 72 71 71 71 71 71 70 70 69 67 67 67 66 67 67 66 66 67 70 69 68
51 50 49 47 47 48 54 55 57 57 55 55 55 56 57 57 58 62 64 64 64 64 64 64 64 64 64 64 64 64 64 63 63 63 60 60 59 58 60 60 60 60 62 64 65 67 68 69 70 70 70 71 71 71 72 72 71 72 72 71 71 71 72 72 71 71 71 70 70 69 70 69 69 70 71 71 71 72 72 71 71 70 70 71 69 68 67 67 68 67 68 71 69 68 67 67 67
50 49 48 47 47 47 50 55 56 56 50 53 56 56 57 58 59 61 63 63 62 63 63 64 64 63 64 64 64 64 64 66 63 62 59 58 59 57 59 59 61 59 62 63 65 67 68 68 69 70 70 70 71 71 71 72 72 71 71 71 70 70 70 71 70 70 69 69 70 70 69 68 68 69 71 72 72 71 70 70 71 70 70 70 70 70 70 73 72 70 69 69 70 68 67 66 66
49 48 47 47 46 49 53 55 56 59 52 51 55 53 54 58 59 61 62 62 64 65 64 64 64 63 63 64 64 64 63 62 62 62 60 56 58 57 58 58 58 59 61 63 64 66 67 68 69 70 70 70 70 71 71 71 71 71 71 70 70 69 68 70 69 69 70 69 68 68 69 68 67 67 68 71 71 71 70 70 70 70 70 71 71 70 70 70 69 68 69 68 66 68 68 68 68
46 46 46 44 46 46 45 52 59 59 54 52 55 53 54 58 60 61 63 63 63 63 64 65 66 63 63 63 63 63 62 61 61 61 60 55 56 57 57 57 58 58 61 62 64 65 67 68 69 70 70 70 70 70 72 71 71 71 70 70 69 69 68 70 68 68 68 66 66 66 67 67 66 65 65 66 69 70 71 71 70 69 69 70 70 69 69 67 68 67 66 69 69 65 66 67 70
47 45 45 44 44 46 46 48 57 58 58 57 53 50 51 57 57 59 61 62 62 63 63 64 66 65 65 63 63 63 62 61 61 61 60 56 54 56 56 57 58 58 60 62 63 65 66 67 68 69 69 70 70 71 71 71 71 70 68 69 70 68 67 66 68 65 64 66 66 65 63 65 64 64 64 64 67 68 70 71 71 70 69 69 69 69 68 67 67 66 66 67 68 66 64 66 70
44 45 45 44 44 45 55 55 53 50 49 54 49 42 44 51 57 58 60 61 60 63 62 62 64 64 64 62 62 62 62 62 61 61 60 56 53 55 56 57 57 57 58 62 63 64 65 66 67 68 69 69 69 69 70 70 71 69 66 66 65 65 64 64 62 63 63 62 62 63 64 64 63 64 63 63 63 66 68 70 71 70 69 70 70 68 68 68 68 67 67 67 66 68 67 66 65
43 42 44 45 45 45 53 53 49 45 44 50 52 43 42 52 54 57 59 58 58 62 61 62 63 62 62 61 61 61 61 61 61 60 59 54 53 54 55 55 56 57 57 60 63 64 65 66 67 67 68 68 68 69 70 71 69 68 66 65 65 64 64 63 64 63 62 63 63 63 63 64 65 63 63 64 64 66 68 69 70 70 70 69 71 70 69 68 68 68 69 68 67 68 69 67 66
41 43 46 46 45 48 53 51 49 47 54 54 54 49 45 45 50 58 59 56 57 58 59 60 62 60 60 60 60 60 61 60 58 58 58 55 52 53 54 55 55 56 57 58 61 63 64 65 66 67 68 68 67 67 68 70 68 68 67 66 65 64 63 63 63 63 63 66 66 64 63 64 65 66 66 67 66 67 69 69 71 71 70 70 70 70 69 69 69 69 70 69 68 69 68 67 66
40 46 47 46 46 49 52 50 51 51 48 45 50 53 45 45 49 59 56 55 56 57 58 59 60 59 59 59 59 60 60 60 55 55 54 54 51 52 54 55 55 56 57 57 59 61 63 64 65 66 66 68 67 67 67 68 69 67 67 66 65 66 64 63 65 68 69 69 66 65 64 63 66 68 69 69 68 68 71 70 71 71 71 70 72 71 71 70 70 69 70 69 69 69 68 67 68
40 52 52 52 52 52 51 51 51 49 44 43 47 51 43 44 51 56 56 52 55 56 58 59 57 57 58 59 59 59 60 60 56 52 52 51 51 51 53 54 55 55 56 57 57 60 62 63 64 65 65 66 66 66 67 67 68 69 66 66 65 65 66 66 67 66 66 67 65 65 65 66 64 67 69 70 70 69 69 71 71 71 70 70 72 71 71 70 70 70 70 69 69 68 69 69 68
48 50 49 49 49 50 53 49 47 44 40 44 46 51 45 41 50 55 53 51 51 56 58 59 58 58 57 58 59 59 59 60 58 52 50 50 50 51 52 53 54 55 55 56 56 58 60 61 62 64 64 65 66 65 66 66 67 67 66 66 65 64 64 64 65 65 66 66 64 62 63 64 65 66 68 70 69 69 70 71 70 70 70 72 73 71 71 70 69 69 69 69 69 69 68 68 68
48 47 46 44 44 46 45 45 46 41 39 43 46 51 47 40 43 54 54 51 50 53 56 57 59 57 57 57 58 58 59 59 59 53 49 49 49 50 51 53 54 54 55 55 55 56 59 60 61 63 64 64 64 64 65 65 66 66 66 65 65 65 65 63 64 64 64 64 63 63 64 64 65 66 67 67 68 69 70 70 71 70 71 70 70 71 71 70 70 70 69 69 68 69 69 69 69
47 45 44 39 37 39 37 39 37 39 39 43 50 50 46 46 45 50 54 53 50 51 54 56 58 57 56 56 57 58 58 59 59 55 49 48 48 49 50 52 53 54 54 54 55 55 57 59 60 62 63 63 64 64 65 65 66 66 66 65 65 65 65 65 64 64 64 64 63 62 64 63 64 65 64 64 65 67 70 70 69 69 69 70 71 71 71 71 70 69 69 68 68 69 69 69 69
45 44 41 37 35 34 31 34 38 38 39 43 50 50 44 45 44 48 51 54 52 50 52 58 57 55 55 56 56 57 58 59 59 55 49 48 49 48 49 51 52 53 52 52 54 56 56 58 60 61 62 63 64 63 64 65 65 65 66 65 65 66 66 65 65 63 63 64 64 63 61 61 62 62 62 64 65 67 69 68 69 69 70 70 71 71 70 70 70 69 68 68 68 68 70 70 69
44 44 38 36 38 34 27 33 28 30 36 40 50 44 42 38 40 45 49 52 53 50 52 57 57 55 55 55 56 56 57 58 59 56 50 48 48 48 48 49 51 52 52 51 53 55 56 57 59 62 62 62 63 63 64 64 64 65 65 65 65 65 65 65 65 65 64 64 63 62 63 63 63 64 65 67 70 69 68 69 68 68 68 69 70 70 68 69 70 70 70 70 70 70 71 71 69
38 32 33 33 32 38 28 34 37 38 40 40 45 44 46 41 45 49 53 50 52 51 51 54 56 54 54 54 55 55 57 58 58 56 50 48 49 48 47 48 50 50 52 51 51 54 54 57 58 59 61 61 62 64 63 63 64 64 65 65 65 66 68 66 67 68 68 66 64 64 64 66 66 65 66 68 67 68 67 67 68 68 69 68 69 70 69 69 69 70 70 71 70 71 71 71 70
31 32 34 33 35 40 41 46 45 40 35 35 44 40 37 39 43 46 53 51 51 50 50 51 52 53 53 53 54 55 56 57 58 56 50 49 48 48 47 47 49 50 50 50 52 52 54 56 58 59 61 61 61 63 62 62 63 63 64 64 64 65 65 65 64 65 66 67 68 67 67 67 68 68 67 68 68 68 68 67 67 66 68 69 69 70 70 70 71 71 71 72 71 72 73 73 73
28 29 31 37 41 39 35 30 36 36 32 36 40 37 36 36 38 46 52 52 51 50 49 50 52 52 53 53 53 54 56 57 58 56 52 49 48 49 47 46 47 49 48 49 52 52 54 56 58 58 60 61 61 62 62 61 62 62 63 64 65 65 64 64 65 66 66 67 68 70 70 70 69 69 69 68 69 69 70 72 70 71 73 73 73 72 71 71 71 71 70 70 70 71 71 71 72
27 32 33 31 32 30 37 34 31 31 31 35 36 40 41 37 40 41 50 51 51 50 50 50 52 52 52 52 53 54 56 57 57 56 51 49 49 48 48 47 46 49 50 48 50 52 53 55 57 58 59 60 61 61 62 62 62 61 61 63 64 65 65 66 68 69 69 68 68 68 69 70 70 72 73 74 74 74 73 72 70 68 67 67 67 68 69 70 70 69 68 67 69 70 70 69 70
28 36 34 42 38 39 36 34 36 35 34 31 33 35 33 40 40 39 44 52 52 52 51 50 52 52 52 52 53 54 55 56 57 56 52 49 49 48 47 48 47 47 49 48 49 52 52 55 59 59 59 60 62 62 63 63 63 62 61 63 64 67 68 69 69 70 70 69 70 70 72 72 72 75 75 75 72 69 67 66 64 63 63 62 62 62 63 63 64 64 64 64 64 66 67 69 69
26 28 30 34 41 43 38 41 39 34 35 34 32 32 37 39 42 42 42 51 53 53 52 52 52 53 53 53 53 54 55 56 56 55 53 50 50 48 48 48 48 48 50 50 49 52 52 54 57 59 58 58 61 61 62 63 65 64 64 62 62 65 67 70 70 71 70 71 72 73 71 71 74 72 71 69 67 66 64 63 62 62 60 61 61 61 60 61 62 62 62 63 63 63 63 64 66
25 25 26 31 37 36 34 34 39 39 34 32 32 31 37 39 44 45 44 49 53 54 53 53 53 53 54 54 54 55 56 56 56 55 53 51 51 50 48 48 49 50 50 51 50 52 53 55 56 57 59 60 60 61 62 63 65 65 64 64 67 67 70 71 71 71 72 72 71 75 75 72 70 70 67 65 64 63 62 61 60 60 59 59 60 60 59 60 60 60 60 61 61 62 61 63 65